Starlink 30369

operational
NORAD ID: 57781 Int'l Des: 2023-134 Owner: SPXS Country: US Constellation: starlink
LEOCIRCULAR

Starlink 30369について

説明を読み込み中...

リアルタイム位置

3D地球を読み込み中...

次回通過

高度履歴

Altitude vs Time

uPlot chart will show altitude changes over time

軌道要素

1 57781U 23134L 25259.73894900 -.00000183 00000-0 15129-5 0 9990
2 57781 43.0043 62.7721 0001451 269.4338 90.6338 15.02534128113303
Epoch: Sep 16, 2025 • Age: 34 hours

現在のステータス

高度 561.9 km
速度 7.59 km/s
衛星直下点 37.24°N, 127.17°E
打ち上げ日 Sep 4, 2023
運用期間 2 years
タイプ internet

技術仕様

分類 Payload
質量 730.00 kg
乾燥質量 700.00 kg
総質量 730.00 kg
長さ 0.30 m
直径 4.10 m
スパン 29.00 m
形状 Box + pan
製造者 SPXS
バスタイプ Starlink V2M
フェーズステータス In Orbit
所有者/国 SPXS/US

大規模コンステレーション

Loading constellations...